When you browse on this site, cookies collect data to enhance your experience and personalize the content and advertising you see.
Visit our Privacy Policy to learn more. By continuing to use the site, you agree to this use of cookies and data.
  • In United Kingdom
  • List of Countries
  • For 7 days
  • Water Temperature
  • Satellite Maps
  • Weather Map
  • Weather Widgets
  • user-avatar
    Login

    Hourly Weather Multan

    Today, 21 February, Thursday

    Time Temperature Precipitation Wind Pressure Humidity
    00:00 +13°C° 0.4 mm 1 mps 752 mmHg 91%
    01:00 +13°C° 0.4 mm 1 mps 752 mmHg 90%
    02:00 +13°C° 0.4 mm 1 mps 752 mmHg 90%
    03:00 +13°C° 0.2 mm 2 mps 752 mmHg 90%
    04:00 +12°C° 0.2 mm 2 mps 752 mmHg 91%
    05:00 +12°C° 0 mm 2 mps 751 mmHg 91%
    06:00 +12°C° 0 mm 2 mps 751 mmHg 90%
    07:00 +12°C° 0 mm 2 mps 752 mmHg 88%
    08:00 +12°C° 0 mm 2 mps 752 mmHg 87%
    09:00 +14°C° 0 mm 2 mps 752 mmHg 79%
    10:00 +16°C° 0 mm 2 mps 752 mmHg 71%
    11:00 +18°C° 0 mm 2 mps 753 mmHg 61%
    12:00 +19°C° 0 mm 2 mps 752 mmHg 54%
    13:00 +21°C° 0 mm 2 mps 752 mmHg 46%
    14:00 +23°C° 0 mm 2 mps 751 mmHg 39%
    15:00 +23°C° 0 mm 1 mps 751 mmHg 39%
    16:00 +23°C° 0 mm 1 mps 751 mmHg 38%
    17:00 +20°C° 0 mm 0 mps 751 mmHg 36%
    18:00 +21°C° 0 mm 1 mps 751 mmHg 38%
    19:00 +20°C° 0 mm 1 mps 751 mmHg 40%
    20:00 +17°C° 0 mm 2 mps 752 mmHg 42%
    21:00 +17°C° 0 mm 2 mps 752 mmHg 46%
    22:00 +16°C° 0 mm 1 mps 752 mmHg 50%
    23:00 +15°C° 0 mm 1 mps 752 mmHg 54%

    Tomorrow, 22 February, Friday

    Time Temperature Precipitation Wind Pressure Humidity
    00:00 +15°C° 0 mm 1 mps 752 mmHg 58%
    01:00 +15°C° 0 mm 1 mps 752 mmHg 61%
    02:00 +14°C° 0 mm 2 mps 752 mmHg 64%
    03:00 +14°C° 0 mm 2 mps 753 mmHg 65%
    04:00 +14°C° 0 mm 2 mps 753 mmHg 66%
    05:00 +13°C° 0 mm 2 mps 753 mmHg 67%
    06:00 +14°C° 0 mm 2 mps 753 mmHg 64%
    07:00 +14°C° 0 mm 2 mps 754 mmHg 60%
    08:00 +14°C° 0 mm 2 mps 754 mmHg 56%
    09:00 +16°C° 0 mm 2 mps 755 mmHg 49%
    10:00 +19°C° 0 mm 3 mps 755 mmHg 42%
    11:00 +21°C° 0 mm 3 mps 755 mmHg 35%
    12:00 +22°C° 0 mm 3 mps 755 mmHg 34%
    13:00 +22°C° 0 mm 3 mps 754 mmHg 32%
    14:00 +24°C° 0 mm 3 mps 754 mmHg 31%
    15:00 +24°C° 0 mm 2 mps 754 mmHg 32%
    16:00 +24°C° 0 mm 2 mps 753 mmHg 32%
    17:00 +24°C° 0 mm 2 mps 753 mmHg 33%
    18:00 +21°C° 0 mm 2 mps 754 mmHg 35%
    19:00 +19°C° 0 mm 2 mps 754 mmHg 37%
    20:00 +18°C° 0 mm 2 mps 754 mmHg 39%
    21:00 +17°C° 0 mm 2 mps 755 mmHg 39%
    22:00 +17°C° 0 mm 2 mps 755 mmHg 39%
    23:00 +16°C° 0 mm 2 mps 755 mmHg 38%

    Day after tomorrow, 23 February, Saturday

    Time Temperature Precipitation Wind Pressure Humidity
    00:00 +16°C° 0 mm 2 mps 755 mmHg 39%
    01:00 +15°C° 0 mm 2 mps 754 mmHg 40%
    02:00 +15°C° 0 mm 2 mps 754 mmHg 40%
    03:00 +14°C° 0 mm 2 mps 754 mmHg 41%
    04:00 +14°C° 0 mm 2 mps 753 mmHg 42%
    05:00 +13°C° 0 mm 2 mps 753 mmHg 43%
    06:00 +14°C° 0 mm 2 mps 753 mmHg 42%
    07:00 +14°C° 0 mm 2 mps 754 mmHg 42%
    08:00 +15°C° 0 mm 2 mps 754 mmHg 42%
    09:00 +17°C° 0 mm 2 mps 754 mmHg 36%
    10:00 +19°C° 0 mm 2 mps 754 mmHg 30%
    11:00 +23°C° 0 mm 2 mps 754 mmHg 24%
    12:00 +24°C° 0 mm 2 mps 753 mmHg 22%
    13:00 +25°C° 0 mm 2 mps 752 mmHg 19%
    14:00 +26°C° 0 mm 2 mps 751 mmHg 17%
    15:00 +25°C° 0 mm 2 mps 751 mmHg 19%
    16:00 +25°C° 0 mm 1 mps 750 mmHg 21%
    17:00 +25°C° 0 mm 1 mps 750 mmHg 22%
    18:00 +23°C° 0 mm 1 mps 750 mmHg 24%
    19:00 +21°C° 0 mm 1 mps 750 mmHg 25%
    20:00 +17°C° 0 mm 0 mps 750 mmHg 26%
    21:00 +16°C° 0 mm 0 mps 750 mmHg 27%
    22:00 +16°C° 0 mm 0 mps 751 mmHg 29%
    23:00 +15°C° 0 mm 0 mps 751 mmHg 31%

    24 February, Sunday

    Time Temperature Precipitation Wind Pressure Humidity
    00:00 +15°C° 0 mm 0 mps 750 mmHg 31%
    01:00 +15°C° 0 mm 0 mps 750 mmHg 32%
    02:00 +14°C° 0 mm 0 mps 750 mmHg 33%
    03:00 +14°C° 0 mm 0 mps 749 mmHg 33%
    04:00 +14°C° 0 mm 0 mps 749 mmHg 33%
    05:00 +16°C° 0 mm 1 mps 749 mmHg 33%
    06:00 +16°C° 0 mm 1 mps 749 mmHg 34%
    07:00 +16°C° 0 mm 1 mps 749 mmHg 35%
    08:00 +18°C° 0 mm 1 mps 750 mmHg 36%
    09:00 +20°C° 0 mm 1 mps 750 mmHg 33%
    10:00 +22°C° 0 mm 1 mps 750 mmHg 29%
    11:00 +24°C° 0 mm 1 mps 750 mmHg 26%
    12:00 +25°C° 0 mm 1 mps 750 mmHg 25%
    13:00 +26°C° 0 mm 1 mps 749 mmHg 24%
    14:00 +27°C° 0 mm 1 mps 748 mmHg 23%
    15:00 +26°C° 0 mm 1 mps 748 mmHg 24%
    16:00 +26°C° 0 mm 1 mps 747 mmHg 26%
    17:00 +24°C° 0 mm 0 mps 747 mmHg 27%
    18:00 +24°C° 0 mm 1 mps 747 mmHg 29%
    19:00 +21°C° 0 mm 2 mps 748 mmHg 30%
    20:00 +20°C° 0 mm 2 mps 748 mmHg 32%
    21:00 +19°C° 0 mm 2 mps 748 mmHg 34%
    22:00 +18°C° 0 mm 2 mps 749 mmHg 35%
    23:00 +18°C° 0 mm 2 mps 749 mmHg 37%

    25 February, Monday

    Time Temperature Precipitation Wind Pressure Humidity
    00:00 +17°C° 0.3 mm 2 mps 749 mmHg 42%
    01:00 +17°C° 0.3 mm 2 mps 748 mmHg 47%
    02:00 +16°C° 0.3 mm 1 mps 748 mmHg 52%
    03:00 +16°C° 0.1 mm 2 mps 748 mmHg 56%
    04:00 +14°C° 0.1 mm 3 mps 748 mmHg 59%
    05:00 +13°C° 0.1 mm 3 mps 748 mmHg 63%
    06:00 +13°C° 0 mm 3 mps 749 mmHg 62%
    07:00 +14°C° 0 mm 3 mps 749 mmHg 61%
    08:00 +14°C° 0 mm 3 mps 750 mmHg 60%
    09:00 +17°C° 0 mm 3 mps 750 mmHg 53%
    10:00 +20°C° 0 mm 3 mps 750 mmHg 45%
    11:00 +22°C° 0 mm 3 mps 750 mmHg 37%
    12:00 +24°C° 0 mm 3 mps 749 mmHg 34%
    13:00 +25°C° 0 mm 3 mps 748 mmHg 31%
    14:00 +26°C° 0 mm 3 mps 748 mmHg 28%
    15:00 +25°C° 0 mm 3 mps 747 mmHg 28%
    16:00 +25°C° 0 mm 3 mps 747 mmHg 29%
    17:00 +25°C° 0 mm 3 mps 747 mmHg 29%
    18:00 +22°C° 0 mm 3 mps 747 mmHg 31%
    19:00 +21°C° 0 mm 3 mps 748 mmHg 33%
    20:00 +19°C° 0 mm 3 mps 748 mmHg 35%
    21:00 +19°C° 0 mm 3 mps 748 mmHg 38%
    22:00 +18°C° 0 mm 3 mps 748 mmHg 41%
    23:00 +17°C° 0 mm 3 mps 748 mmHg 44%

    26 February, Tuesday

    Time Temperature Precipitation Wind Pressure Humidity
    00:00 +17°C° 0 mm 3 mps 748 mmHg 46%
    01:00 +16°C° 0 mm 2 mps 748 mmHg 47%
    02:00 +16°C° 0 mm 2 mps 747 mmHg 48%
    03:00 +15°C° 0 mm 2 mps 747 mmHg 48%
    04:00 +14°C° 0 mm 3 mps 747 mmHg 49%
    05:00 +14°C° 0 mm 3 mps 747 mmHg 49%
    06:00 +14°C° 0 mm 4 mps 748 mmHg 48%
    07:00 +14°C° 0 mm 4 mps 748 mmHg 46%
    08:00 +14°C° 0 mm 5 mps 748 mmHg 45%
    09:00 +15°C° 0 mm 5 mps 748 mmHg 41%
    10:00 +16°C° 0 mm 5 mps 749 mmHg 37%
    11:00 +19°C° 0 mm 6 mps 749 mmHg 33%
    12:00 +20°C° 0 mm 6 mps 748 mmHg 31%
    13:00 +20°C° 0 mm 7 mps 747 mmHg 29%
    14:00 +21°C° 0 mm 7 mps 746 mmHg 27%
    15:00 +21°C° 0 mm 6 mps 746 mmHg 28%
    16:00 +21°C° 0 mm 5 mps 746 mmHg 29%
    17:00 +21°C° 0 mm 5 mps 745 mmHg 30%
    18:00 +19°C° 0 mm 4 mps 745 mmHg 35%
    19:00 +18°C° 0 mm 3 mps 746 mmHg 39%
    20:00 +17°C° 0 mm 2 mps 746 mmHg 44%
    21:00 +16°C° 0 mm 2 mps 746 mmHg 48%
    22:00 +15°C° 0 mm 1 mps 745 mmHg 51%
    23:00 +15°C° 0 mm 1 mps 745 mmHg 54%
    Show more